TimeAST,TemperatureF,Dew PointF,Humidity,Sea Level PressureIn,VisibilityMPH,Wind Direction,Wind SpeedMPH,Gust SpeedMPH,PrecipitationIn,Events,Conditions,WindDirDegrees,DateUTC
12:00 AM,80.6,75.2,84,29.95,6.2,East,16.1,-,N/A,,Partly Cloudy,90,2012-12-30 04:00:00
1:00 AM,80.6,75.2,84,29.95,6.2,East,15.0,-,N/A,,Partly Cloudy,90,2012-12-30 05:00:00
2:00 AM,79,75,84,29.94,9,East,15.0,,,Rain,Light Rain Showers,100,2012-12-30 06:00:00
2:00 AM,78.8,75.2,89,29.92,6.2,East,15.0,-,N/A,Rain,Light Rain Showers,100,2012-12-30 06:00:00
3:00 AM,78.8,75.2,89,29.92,6.2,East,13.8,-,N/A,,Partly Cloudy,100,2012-12-30 07:00:00
4:00 AM,78.8,73.4,83,29.92,6.2,East,16.1,-,N/A,,Partly Cloudy,90,2012-12-30 08:00:00
5:00 AM,80,75,79,29.95,11,East,18.4,,,,Widespread Dust,100,2012-12-30 09:00:00
5:00 AM,80.6,75.2,84,29.95,6.2,East,18.4,-,N/A,,Partly Cloudy,100,2012-12-30 09:00:00
6:00 AM,80.6,73.4,79,29.95,6.2,East,16.1,-,N/A,,Partly Cloudy,100,2012-12-30 10:00:00
7:00 AM,78.8,75.2,89,29.98,6.2,East,11.5,-,N/A,,Partly Cloudy,100,2012-12-30 11:00:00
8:00 AM,82,74,72,30.01,9,East,13.8,,,,Widespread Dust,100,2012-12-30 12:00:00
8:00 AM,82.4,75.2,79,30.01,6.2,East,13.8,-,N/A,,Partly Cloudy,100,2012-12-30 12:00:00
9:00 AM,84.2,77.0,79,30.01,6.2,ESE,16.1,-,N/A,,Partly Cloudy,110,2012-12-30 13:00:00
10:00 AM,86.0,77.0,74,30.01,6.2,ESE,16.1,-,N/A,,Partly Cloudy,110,2012-12-30 14:00:00
11:00 AM,85,75,66,30.00,11,ESE,9.2,,,,Widespread Dust,110,2012-12-30 15:00:00
11:00 AM,86.0,75.2,70,29.98,6.2,ESE,9.2,-,N/A,,Partly Cloudy,110,2012-12-30 15:00:00
12:00 PM,86.0,77.0,74,29.98,6.2,East,19.6,-,N/A,,Partly Cloudy,90,2012-12-30 16:00:00
1:00 PM,86.0,75.2,70,29.95,6.2,ESE,18.4,-,N/A,,Partly Cloudy,110,2012-12-30 17:00:00
2:00 PM,85,75,66,29.93,14,ESE,20.7,,,,Widespread Dust,110,2012-12-30 18:00:00
2:00 PM,86.0,75.2,70,29.92,6.2,ESE,20.7,-,N/A,,Partly Cloudy,110,2012-12-30 18:00:00
3:00 PM,86.0,75.2,70,29.92,6.2,ESE,13.8,-,N/A,,Scattered Clouds,120,2012-12-30 19:00:00
4:00 PM,84.2,75.2,74,29.92,6.2,ESE,16.1,-,N/A,,Scattered Clouds,110,2012-12-30 20:00:00
5:00 PM,83,,,,9,East,16.1,,,,,100,2012-12-30 21:00:00
5:00 PM,84.2,75.2,74,29.92,6.2,East,16.1,-,N/A,,Partly Cloudy,100,2012-12-30 21:00:00
6:00 PM,80.6,75.2,84,29.95,6.2,East,9.2,-,N/A,,Partly Cloudy,80,2012-12-30 22:00:00
7:00 PM,80.6,75.2,84,29.95,6.2,East,9.2,-,N/A,,Partly Cloudy,90,2012-12-30 23:00:00
8:00 PM,80,75,79,29.98,7,East,9.2,,,,Widespread Dust,90,2012-12-31 00:00:00
8:00 PM,80.6,75.2,84,29.98,6.2,East,9.2,-,N/A,,Partly Cloudy,90,2012-12-31 00:00:00
9:00 PM,78.8,75.2,89,29.98,6.2,East,5.8,-,N/A,,Partly Cloudy,90,2012-12-31 01:00:00
10:00 PM,78.8,75.2,89,29.98,6.2,ENE,11.5,-,N/A,,Scattered Clouds,70,2012-12-31 02:00:00
11:00 PM,79,74,79,29.99,7,East,5.8,,,,Widespread Dust,90,2012-12-31 03:00:00
11:00 PM,78.8,73.4,83,29.98,6.2,East,5.8,-,N/A,,Partly Cloudy,90,2012-12-31 03:00:00